D3

Last updated on Fri Apr 07 2023 00:02:08 GMT+0000 (Coordinated Universal Time)

1 53767U 98067UE 23096.57125271 .05554731 12190-4 89718-3 0 9991 2 53767 51.6108 297.8017 0009279 268.3548 91.6412 16.32673082 33252

Satellite not in orbit